Weather History for Oakland, CA

Change the Weather History Date:

Wednesday, March 14, 2012

  Actual Average Record
Temperature  
Mean Temperature 56 °F 54 °F  
Max Temperature 58 °F 62 °F 77 °F (2004)
Min Temperature 54 °F 46 °F 36 °F (1954)
Degree Days  
Heating Degree Days 9 11  
Month to date heating degree days 183 159  
Since 1 July heating degree days 2118 2181  
Cooling Degree Days 0 0  
Month to date cooling degree days 0 0  
Year to date cooling degree days 0 0  
Growing Degree Days 6 (Base 50)    
Moisture  
Dew Point 53 °F    
Average Humidity 93    
Maximum Humidity 100    
Minimum Humidity 86    
Precipitation  
Precipitation 1.68 in 0.11 in 1.68 in (2012)
Month to date precipitation 2.48 1.57  
Year to date precipitation 5.46 9.51  
Since 1 July precipitation 8.53 17.10  
Sea Level Pressure  
Sea Level Pressure 30.08 in    
Wind  
Wind Speed 13 mph (SSE)    
Max Wind Speed 21 mph    
Max Gust Speed 24 mph    
Visibility 5 miles    
Events Rain    
T = Trace of Precipitation, MM = Missing Value Source: NWS Daily Summary

Daily Weather History Graph

Daily Weather History Graph

Search for Another Location

Airport:

Trip Planner

Search our weather history database for the weather conditions in past years. The results will help you decide how hot, cold, wet, or windy it might be!

Date:

Astronomy

Mar. 14, 2012 Rise Set
Actual Time 7:20 AM PDT 7:15 PM PDT
Civil Twilight 6:54 AM PDT 7:41 PM PDT
Nautical Twilight 6:24 AM PDT 8:12 PM PDT
Astronomical Twilight 5:53 AM PDT 8:43 PM PDT
Moon 1:49 AM PDT (3/14) 11:44 AM PDT (3/14)
Length of Visible Light 12h 47m
Length of Day
11h 55m
Waning Gibbous, 53% of the Moon is Illuminated
Mar 14
Waning Gibbous
Mar 14
Last Quarter
Mar 22
New
Mar 30
First Quarter
Apr 6
Full

Hourly Weather History & Observations

Time (PDT) Temp. Dew Point Humidity Pressure Visibility Wind Dir Wind Speed Gust Speed Precip Events Conditions
12:53 AM 55.4 °F 51.8 °F 88% 30.00 in 10.0 mi SSE 16.1 mph - N/A   Overcast
1:53 AM 55.0 °F 53.1 °F 93% 30.00 in 10.0 mi SSE 12.7 mph - 0.00 in   Overcast
2:53 AM 55.0 °F 52.0 °F 89% 30.00 in 7.0 mi SSE 16.1 mph - 0.00 in Rain Light Rain
3:53 AM 55.0 °F 52.0 °F 89% 29.99 in 7.0 mi South 15.0 mph - 0.01 in Rain Light Rain
4:53 AM 54.0 °F 54.0 °F 100% 29.99 in 7.0 mi SSE 17.3 mph - 0.03 in Rain Light Rain
5:53 AM 55.0 °F 55.0 °F 100% 29.99 in 10.0 mi SSE 17.3 mph - 0.01 in Rain Light Rain
6:53 AM 54.0 °F 51.1 °F 90% 30.01 in 4.0 mi SSE 17.3 mph - 0.06 in Rain Light Rain
7:53 AM 54.0 °F 53.1 °F 97% 30.03 in 3.0 mi SSE 16.1 mph - 0.11 in Rain Rain
8:53 AM 54.0 °F 54.0 °F 100% 30.05 in 2.5 mi SSE 13.8 mph - 0.14 in Rain Rain
9:53 AM 55.0 °F 52.0 °F 89% 30.07 in 3.0 mi SSE 15.0 mph - 0.16 in Rain Rain
10:53 AM 55.0 °F 52.0 °F 89% 30.09 in 3.0 mi SSE 13.8 mph - 0.12 in Rain Light Rain
11:10 AM 55.4 °F 51.8 °F 88% 30.09 in 2.5 mi SSE 15.0 mph - 0.02 in Rain Rain
11:40 AM 55.4 °F 51.8 °F 88% 30.09 in 1.5 mi SSE 13.8 mph - 0.09 in Rain Rain
11:53 AM 55.0 °F 52.0 °F 89% 30.09 in 1.5 mi SSE 12.7 mph - 0.14 in Rain Rain
12:53 PM 55.0 °F 52.0 °F 89% 30.10 in 1.5 mi SSE 13.8 mph - 0.15 in Rain Rain
1:53 PM 55.9 °F 54.0 °F 93% 30.10 in 2.5 mi SSE 10.4 mph - 0.17 in Rain Rain
2:53 PM 55.9 °F 54.0 °F 93% 30.09 in 2.5 mi SE 10.4 mph - 0.15 in Rain Light Rain
3:02 PM 55.4 °F 53.6 °F 94% 30.09 in 1.5 mi SSE 12.7 mph - 0.02 in Rain Rain
3:32 PM 55.4 °F 53.6 °F 94% 30.09 in 1.5 mi SSE 10.4 mph - 0.06 in Rain Light Rain
3:44 PM 55.4 °F 53.6 °F 94% 30.09 in 5.0 mi SE 11.5 mph - 0.09 in Rain Rain
3:53 PM 57.0 °F 54.0 °F 89% 30.09 in 5.0 mi SE 12.7 mph - 0.11 in Rain Light Rain
4:53 PM 57.0 °F 54.0 °F 89% 30.09 in 7.0 mi SSE 10.4 mph - 0.05 in Rain Light Rain
5:35 PM 57.2 °F 53.6 °F 88% 30.10 in 2.0 mi SSE 10.4 mph - 0.02 in Rain Light Rain
5:41 PM 57.2 °F 53.6 °F 88% 30.10 in 1.5 mi SSE 10.4 mph - 0.05 in Rain Rain
5:53 PM 57.9 °F 54.0 °F 87% 30.10 in 1.5 mi SSE 9.2 mph - 0.07 in Rain Light Rain
6:53 PM 57.0 °F 54.0 °F 89% 30.11 in 1.5 mi SSE 9.2 mph - 0.10 in Rain Rain
7:40 PM 57.2 °F 53.6 °F 88% 30.11 in 2.0 mi SSE 12.7 mph - 0.06 in Rain Light Rain
7:53 PM 57.0 °F 54.0 °F 89% 30.12 in 2.0 mi SSE 10.4 mph - 0.07 in Rain Light Rain
8:06 PM 57.2 °F 53.6 °F 88% 30.12 in 5.0 mi SSE 9.2 mph - 0.01 in Rain Light Rain
8:19 PM 57.2 °F 53.6 °F 88% 30.12 in 2.0 mi SSE 12.7 mph - 0.01 in Rain Light Rain
8:39 PM 57.2 °F 53.6 °F 88% 30.12 in 7.0 mi SSE 11.5 mph - 0.01 in Rain Light Rain
8:53 PM 55.9 °F 53.1 °F 90% 30.13 in 9.0 mi SSE 12.7 mph - 0.02 in Rain Light Rain
9:53 PM 57.0 °F 53.1 °F 87% 30.14 in 7.0 mi South 6.9 mph - 0.00 in Rain Light Rain
10:53 PM 57.0 °F 53.1 °F 87% 30.14 in 10.0 mi South 10.4 mph - 0.01 in Rain Light Rain
11:26 PM 57.2 °F 53.6 °F 88% 30.14 in 10.0 mi South 12.7 mph - 0.00 in   Overcast
11:53 PM 55.9 °F 52.0 °F 87% 30.14 in 10.0 mi South 11.5 mph - 0.00 in   Overcast